Regional Weather Roundup
Issued by NWS

Home | Current Version | Previous Version | Graphics & Text | Print | Product List | Glossary On
Versions: 1 2 3 4 5 6 7 8 9 10 11 12 13 14 15 16 17 18 19 20 21 22 23 24 25 26 27 28 29 30 31 32 33 34 35 36 37 38 39 40 41 42 43 44 45 46 47 48 49 50
000
ASUS43 KDTX 112010
RWRMI
MICHIGAN HOURLY REGIONAL WEATHER ROUNDUP
NATIONAL WEATHER SERVICE DETROIT/PONTIAC MI
300 PM EST THU FEB 11 2016

NOTE: "FAIR" INDICATES FEW OR NO CLOUDS BELOW 12,000 FEET WITH NO
SIGNIFICANT WEATHER AND/OR OBSTRUCTION TO VISIBILITY.

MIZ047>049-052>055-059>063-066>070-074>076-081>083-112100-
SOUTHEAST LOWER MICHIGAN

CITY           SKY/WX    TMP DP  RH WIND       PRES   REMARKS
ADRIAN         CLOUDY    20   4  50 NW6       30.22S WCI  12
ALMA           PTSUNNY   22   5  46 W7G18     30.20S WCI  14
ANN ARBOR      CLOUDY    21   6  52 W13       30.20S WCI   9
BAD AXE        PTSUNNY   15   4  62 W8        30.20R WCI   4
CARO           PTSUNNY   18   5  57 W6        30.20S WCI   9
DETROIT CITY   MOSUNNY   18   0  45 W8        30.21R WCI   8
DETROIT        MOSUNNY   22   4  46 W16       30.22S WCI   8
FLINT          MOSUNNY   20   3  48 NW10      30.20F WCI   9
GROSSE ILE     CLOUDY    21   3  45 NW14      30.21R WCI   8
HILLSDALE      CLOUDY    19   8  63 W13       30.19S WCI   6
HOWELL         MOSUNNY   18   4  54 NW9       30.19S WCI   7

CITY           SKY/WX    TMP DP  RH WIND       PRES   REMARKS
JACKSON        PTSUNNY   21   3  45 W10       30.19S WCI  10
LAMBERTVILLE   PTSUNNY   23   4  43 W8        30.23S WCI  14
LANSING        CLOUDY    20   3  48 NW12      30.21S WCI   8
LAPEER         FAIR      16   4  60 NW7       30.19S WCI   6
MASON          CLOUDY    20   5  52 W9        30.20S WCI  10
MONROE         CLOUDY    22   4  46 W9        30.22R WCI  12
MT. CLEMENS    MOSUNNY   17   2  50 NW12G18   30.19R WCI   5
PONTIAC        PTSUNNY   18   4  54 W14       30.18R WCI   4
PORT HOPE        N/A     14   2  58 NW15      30.17S WCI  -1
PORT HURON     MOSUNNY   14   1  57 NW12G17   30.21R WCI   0
TRI CITIES     CLOUDY    20   4  50 W10       30.20S WCI   9
MIDLAND        CLOUDY    20   3  48 W10       30.19S WCI   8
TROY           MOSUNNY   20   3  47 W10G17    30.22S WCI   9
SAGINAW HB     PTSUNNY   19   7  58 NW6       30.20F WCI  11
$$
MIZ043>046-050>051-056>058-064>065-071>073-077>080-112100-
SOUTHWEST LOWER MICHIGAN

CITY           SKY/WX    TMP DP  RH WIND       PRES   REMARKS
BATTLE CREEK   PTSUNNY   20   7  57 W9        30.22R WCI   9
BENTON HARBOR  LGT SNOW  20  12  71 NW8       30.27S WCI  10
BIG RAPIDS     CLOUDY    20   4  49 W10G16    30.17F WCI   8
COLDWATER      CLOUDY    20   9  63 W10       30.22S WCI   8
FREMONT        FLURRIES  20   7  57 W8        30.21S WCI  11
HOLLAND        LGT SNOW  21  15  78 VRB6      30.24F WCI  13
GRAND RAPIDS   PTSUNNY   23   5  46 W14       30.21F WCI  11
IONIA          CLOUDY    21   4  48 NW9       30.20S WCI  11
KALAMAZOO      LGT SNOW  20  11  68 W9        30.23S WCI   9
LUDINGTON      CLOUDY    18   7  60 NW7       30.23S WCI   9
MARSHALL       CLOUDY    22   4  44 W9G16     30.21S WCI  12
MOUNT PLEASANT CLOUDY    24   5  44 W12       30.18S WCI  13
MUSKEGON       CLOUDY    21   9  59 NW10      30.24F WCI  10
SOUTH HAVEN    CLOUDY    21  10  63 NW7       30.25S WCI  13
$$
MIZ016>042-112100-
NORTHERN LOWER MICHIGAN

CITY           SKY/WX    TMP DP  RH WIND       PRES   REMARKS
ALPENA         MOSUNNY   15  -1  49 W10       30.15F WCI   2
BEAVER ISLAND  CLOUDY    18   7  62 W10       30.14S WCI   6
BELLAIRE       CLOUDY    19  10  67 W5        30.17S WCI  12
CADILLAC       CLOUDY    18   6  60 W15       30.12R WCI   3
CHARLEVOIX     FLURRIES  18   9  66 W17       30.17F WCI   3
FRANKFORT      CLOUDY    19   7  59 W7        30.20S WCI   9
GRAYLING       LGT SNOW  16   7  66 W8G18     30.12S WCI   5
HARBOR SPRINGS LGT SNOW  16   9  74 W7        30.13F WCI   6
HOUGHTON LAKE  CLOUDY    16   5  62 W9        30.13F WCI   4
MANISTEE       CLOUDY    18   3  53 W15       30.22S WCI   3
OSCODA         MOSUNNY   17  -1  45 W13       30.16F WCI   3
PELLSTON       PTSUNNY   16   5  62 W10       30.13F WCI   4
ROGERS CITY    MOSUNNY   16   0  50 W7        30.14F WCI   6
TRAVERSE CITY  FLURRIES  18   7  62 W14       30.17F WCI   4
$$
MIZ007>008-015-112100-
EASTERN UPPER MICHIGAN

CITY           SKY/WX    TMP DP  RH WIND       PRES   REMARKS
KINROSS        CLOUDY    12   9  85 S8        30.08F WCI   1
MACKINAC ISLAN CLOUDY    15   8  74 SW14      30.10F WCI   0
NEWBERRY       LGT SNOW  15   8  73 W21       30.08S WCI  -2
S. S. MARIE    PTSUNNY   12   0  58 S5        30.08F WCI   4
MUNISING         N/A     16   2  54 W9        30.14F WCI   4
$$
MIZ004>006-011>014-085-112100-
CENTRAL UPPER MICHIGAN

CITY           SKY/WX    TMP DP  RH WIND       PRES   REMARKS
MANISTIQUE     CLOUDY    16   3  55 W15G21    30.14S WCI   1
ESCANABA       MOSUNNY   18   0  45 W15       30.16F WCI   3
MENOMINEE      SUNNY     18   1  49 W7        30.19F WCI   8
SAWYER-GWINN   CLOUDY    12   3  67 NW12G21   30.10F WCI  -2
$$
MIZ001>003-009>011-084-112100-
WESTERN UPPER MICHIGAN

CITY           SKY/WX    TMP DP  RH WIND       PRES   REMARKS
IRON MOUNTAIN  MOSUNNY   17   1  49 NW13G21   30.12F WCI   4
HOUGHTON       LGT SNOW  13   7  77 W13       30.09F VSB 3/4 WCI  -2
COPPER HARBOR    N/A     15   7  70 NW12G22   30.11F WCI   2
IRONWOOD       SUNNY     10  -2  56 W10       30.13F WCI  -3
$$

ABBREVIATIONS USED IN REMARKS
   TC - TEMPERATURE IN CELSIUS
  WCI - WIND CHILL INDEX
   HX - HEAT INDEX
  VSB - VISIBILITY




USA.gov is the U.S. government's official web portal to all federal, state and local government web resources and services.